Time,TemperatureF,DewpointF,PressureIn,WindDirection,WindDirectionDegrees,WindSpeedMPH,WindSpeedGustMPH,Humidity,HourlyPrecipIn,Conditions,Clouds,dailyrainin,SoftwareType,DateUTC
2013-01-08 00:00:00,36.1,35.6,30.03,SE,135,1.0,0.0,97,0.00,,,0.00,WeatherTracker,2013-01-08 08:00:00,
2013-01-08 00:10:00,35.6,35.6,30.03,SE,135,0.0,0.0,96,0.00,,,0.00,WeatherTracker,2013-01-08 08:10:00,
2013-01-08 00:20:00,35.1,33.8,30.03,SE,135,0.0,0.0,97,0.00,,,0.00,WeatherTracker,2013-01-08 08:20:00,
2013-01-08 00:25:00,34.9,33.8,30.03,East,90,0.0,0.0,96,0.00,,,0.00,WeatherTracker,2013-01-08 08:25:00,
2013-01-08 00:35:00,34.9,33.8,30.03,ESE,112,0.0,0.0,97,0.00,,,0.00,WeatherTracker,2013-01-08 08:35:00,
2013-01-08 00:40:00,35.1,33.8,30.03,ESE,112,0.0,0.0,97,0.00,,,0.00,WeatherTracker,2013-01-08 08:40:00,
2013-01-08 00:45:00,35.4,35.6,30.03,ESE,112,0.0,1.0,97,0.00,,,0.00,WeatherTracker,2013-01-08 08:45:00,
2013-01-08 00:55:00,36.0,35.6,30.03,ESE,112,0.0,0.0,97,0.00,,,0.00,WeatherTracker,2013-01-08 08:55:00,
2013-01-08 01:00:00,36.0,35.6,30.03,SSE,157,2.0,3.0,97,0.00,,,0.00,WeatherTracker,2013-01-08 09:00:00,
2013-01-08 01:10:00,36.0,35.6,30.03,South,180,2.0,2.0,97,0.00,,,0.00,WeatherTracker,2013-01-08 09:10:00,
2013-01-08 01:20:00,36.9,37.4,30.06,SE,135,4.0,4.0,98,0.00,,,0.00,WeatherTracker,2013-01-08 09:20:00,
2013-01-08 01:30:00,36.3,37.4,30.03,East,90,0.0,0.0,98,0.00,,,0.00,WeatherTracker,2013-01-08 09:30:00,
2013-01-08 01:35:00,36.1,37.4,30.03,East,90,0.0,0.0,98,0.00,,,0.00,WeatherTracker,2013-01-08 09:35:00,
2013-01-08 01:45:00,36.1,37.4,30.03,ESE,112,0.0,0.0,98,0.00,,,0.00,WeatherTracker,2013-01-08 09:45:00,
2013-01-08 01:55:00,35.8,35.6,30.03,SE,135,0.0,1.0,98,0.00,,,0.00,WeatherTracker,2013-01-08 09:55:00,
2013-01-08 02:05:00,35.8,35.6,30.03,SE,135,0.0,0.0,98,0.00,,,0.00,WeatherTracker,2013-01-08 10:05:00,
2013-01-08 02:15:00,35.8,35.6,30.06,East,90,1.0,1.0,98,0.00,,,0.00,WeatherTracker,2013-01-08 10:15:00,
2013-01-08 02:20:00,35.8,35.6,30.06,East,90,0.0,0.0,98,0.00,,,0.00,WeatherTracker,2013-01-08 10:20:00,
2013-01-08 02:30:00,36.1,37.4,30.06,East,90,2.0,2.0,98,0.00,,,0.00,WeatherTracker,2013-01-08 10:30:00,
2013-01-08 02:40:00,36.1,37.4,30.06,East,90,0.0,0.0,98,0.00,,,0.00,WeatherTracker,2013-01-08 10:40:00,
2013-01-08 02:45:00,36.1,37.4,30.06,East,90,0.0,0.0,98,0.00,,,0.00,WeatherTracker,2013-01-08 10:45:00,
2013-01-08 02:55:00,36.1,37.4,30.06,SSE,157,0.0,0.0,98,0.00,,,0.00,WeatherTracker,2013-01-08 10:55:00,
2013-01-08 03:05:00,36.1,37.4,30.06,ESE,112,0.0,0.0,98,0.00,,,0.00,WeatherTracker,2013-01-08 11:05:00,
2013-01-08 03:15:00,36.1,37.4,30.06,SE,135,0.0,0.0,98,0.00,,,0.00,WeatherTracker,2013-01-08 11:15:00,
2013-01-08 03:20:00,36.1,37.4,30.06,ESE,112,0.0,0.0,98,0.00,,,0.00,WeatherTracker,2013-01-08 11:20:00,
2013-01-08 03:30:00,36.3,37.4,30.06,ESE,112,0.0,0.0,98,0.00,,,0.00,WeatherTracker,2013-01-08 11:30:00,
2013-01-08 03:35:00,36.3,37.4,30.06,SE,135,1.0,2.0,98,0.00,,,0.00,WeatherTracker,2013-01-08 11:35:00,
2013-01-08 03:40:00,36.5,37.4,30.06,SE,135,0.0,0.0,98,0.00,,,0.00,WeatherTracker,2013-01-08 11:40:00,
2013-01-08 03:45:00,36.5,37.4,30.03,East,90,0.0,0.0,98,0.00,,,0.00,WeatherTracker,2013-01-08 11:45:00,
2013-01-08 03:50:00,36.3,37.4,30.03,East,90,0.0,0.0,98,0.00,,,0.00,WeatherTracker,2013-01-08 11:50:00,
2013-01-08 03:55:00,36.7,37.4,30.03,East,90,0.0,0.0,98,0.00,,,0.00,WeatherTracker,2013-01-08 11:55:00,
2013-01-08 04:00:00,36.5,37.4,30.03,East,90,0.0,0.0,98,0.00,,,0.00,WeatherTracker,2013-01-08 12:00:00,
2013-01-08 04:05:00,36.7,37.4,30.03,ESE,112,0.0,0.0,98,0.00,,,0.00,WeatherTracker,2013-01-08 12:05:00,
2013-01-08 04:10:00,37.2,37.4,30.03,SSE,157,2.0,2.0,98,0.00,,,0.00,WeatherTracker,2013-01-08 12:10:00,
2013-01-08 04:15:00,37.4,37.4,30.03,South,180,4.0,4.0,98,0.00,,,0.00,WeatherTracker,2013-01-08 12:15:00,
2013-01-08 04:25:00,37.8,37.4,30.03,SSW,202,4.0,6.0,98,0.00,,,0.00,WeatherTracker,2013-01-08 12:25:00,
2013-01-08 04:30:00,37.8,37.4,30.03,SE,135,5.0,5.0,98,0.00,,,0.00,WeatherTracker,2013-01-08 12:30:00,
2013-01-08 04:35:00,37.8,37.4,30.03,SW,225,3.0,4.0,98,0.00,,,0.00,WeatherTracker,2013-01-08 12:35:00,
2013-01-08 04:40:00,37.8,37.4,30.03,SSE,157,3.0,3.0,98,0.00,,,0.00,WeatherTracker,2013-01-08 12:40:00,
2013-01-08 04:45:00,37.9,37.4,30.00,SSE,157,5.0,5.0,98,0.00,,,0.00,WeatherTracker,2013-01-08 12:45:00,
2013-01-08 04:50:00,37.9,37.4,30.00,South,180,4.0,4.0,98,0.00,,,0.00,WeatherTracker,2013-01-08 12:50:00,
2013-01-08 04:55:00,38.1,37.4,30.00,South,180,4.0,6.0,98,0.00,,,0.00,WeatherTracker,2013-01-08 12:55:00,
2013-01-08 05:00:00,38.1,37.4,30.03,South,180,2.0,4.0,98,0.00,,,0.00,WeatherTracker,2013-01-08 13:00:00,
2013-01-08 05:05:00,38.1,37.4,30.03,South,180,4.0,5.0,98,0.00,,,0.00,WeatherTracker,2013-01-08 13:05:00,
2013-01-08 05:10:00,38.1,37.4,30.03,East,90,2.0,2.0,98,0.00,,,0.00,WeatherTracker,2013-01-08 13:10:00,
2013-01-08 05:15:00,37.9,37.4,30.03,SE,135,2.0,0.0,98,0.00,,,0.00,WeatherTracker,2013-01-08 13:15:00,
2013-01-08 05:20:00,37.9,37.4,30.03,NNE,22,1.0,1.0,98,0.00,,,0.00,WeatherTracker,2013-01-08 13:20:00,
2013-01-08 05:25:00,37.9,37.4,30.03,SSE,157,3.0,4.0,98,0.00,,,0.00,WeatherTracker,2013-01-08 13:25:00,
2013-01-08 05:30:00,37.9,37.4,30.00,SSW,202,4.0,5.0,98,0.00,,,0.00,WeatherTracker,2013-01-08 13:30:00,
2013-01-08 05:35:00,37.9,37.4,30.00,South,180,5.0,5.0,98,0.00,,,0.00,WeatherTracker,2013-01-08 13:35:00,
2013-01-08 05:42:00,37.9,37.4,29.97,SE,135,3.0,6.0,98,0.00,,,0.00,WeatherTracker,2013-01-08 13:42:00,
2013-01-08 05:50:00,37.9,37.4,29.97,ENE,67,4.0,4.0,98,0.00,,,0.00,WeatherTracker,2013-01-08 13:50:00,
2013-01-08 06:00:00,38.3,39.2,30.00,SE,135,1.0,3.0,98,0.00,,,0.00,WeatherTracker,2013-01-08 14:00:00,
2013-01-08 06:10:00,38.3,39.2,30.00,SE,135,4.0,5.0,98,0.00,,,0.00,WeatherTracker,2013-01-08 14:10:00,
2013-01-08 06:15:00,38.3,39.2,29.97,SE,135,2.0,2.0,98,0.00,,,0.00,WeatherTracker,2013-01-08 14:15:00,
2013-01-08 06:25:00,38.1,37.4,29.97,East,90,4.0,4.0,97,0.00,,,0.00,WeatherTracker,2013-01-08 14:25:00,
2013-01-08 06:35:00,38.5,37.4,29.97,South,180,5.0,5.0,97,0.00,,,0.00,WeatherTracker,2013-01-08 14:35:00,
2013-01-08 06:45:00,38.7,37.4,29.97,ESE,112,2.0,4.0,97,0.00,,,0.00,WeatherTracker,2013-01-08 14:45:00,
2013-01-08 06:50:00,38.5,37.4,29.97,SSW,202,5.0,6.0,97,0.00,,,0.00,WeatherTracker,2013-01-08 14:50:00,
2013-01-08 07:00:00,38.5,37.4,29.97,SE,135,2.0,2.0,97,0.00,,,0.00,WeatherTracker,2013-01-08 15:00:00,
2013-01-08 07:10:00,38.5,37.4,29.97,South,180,0.0,0.0,97,0.00,,,0.00,WeatherTracker,2013-01-08 15:10:00,
2013-01-08 07:20:00,38.7,37.4,29.97,SE,135,3.0,4.0,97,0.00,,,0.00,WeatherTracker,2013-01-08 15:20:00,
2013-01-08 07:25:00,38.7,37.4,29.97,SE,135,2.0,3.0,97,0.00,,,0.00,WeatherTracker,2013-01-08 15:25:00,
2013-01-08 07:35:00,38.5,37.4,29.97,South,180,2.0,2.0,97,0.00,,,0.00,WeatherTracker,2013-01-08 15:35:00,
2013-01-08 07:45:00,38.5,37.4,29.94,SE,135,1.0,1.0,97,0.00,,,0.00,WeatherTracker,2013-01-08 15:45:00,
2013-01-08 07:55:00,38.7,37.4,29.94,SE,135,2.0,2.0,97,0.00,,,0.00,WeatherTracker,2013-01-08 15:55:00,
2013-01-08 08:00:00,38.7,37.4,29.97,East,90,2.0,2.0,97,0.00,,,0.00,WeatherTracker,2013-01-08 16:00:00,
2013-01-08 08:10:00,38.8,37.4,29.97,SSE,157,1.0,1.0,97,0.04,,,0.04,WeatherTracker,2013-01-08 16:10:00,
2013-01-08 08:20:00,38.8,37.4,29.94,SE,135,3.0,4.0,96,0.04,,,0.04,WeatherTracker,2013-01-08 16:20:00,
2013-01-08 08:30:00,39.0,39.2,29.94,SSE,157,4.0,5.0,96,0.04,,,0.04,WeatherTracker,2013-01-08 16:30:00,
2013-01-08 08:35:00,39.0,39.2,29.94,SE,135,5.0,5.0,96,0.04,,,0.04,WeatherTracker,2013-01-08 16:35:00,
2013-01-08 08:45:00,38.8,37.4,29.91,SSE,157,5.0,5.0,97,0.04,,,0.04,WeatherTracker,2013-01-08 16:45:00,
2013-01-08 08:55:00,38.8,37.4,29.91,ENE,67,3.0,3.0,97,0.04,,,0.04,WeatherTracker,2013-01-08 16:55:00,
2013-01-08 09:00:00,38.8,37.4,29.94,SE,135,3.0,3.0,97,0.04,,,0.04,WeatherTracker,2013-01-08 17:00:00,
2013-01-08 09:05:00,38.8,37.4,29.94,SSE,157,2.0,2.0,97,0.04,,,0.04,WeatherTracker,2013-01-08 17:05:00,
2013-01-08 09:15:00,38.8,37.4,29.91,South,180,4.0,4.0,97,0.00,,,0.04,WeatherTracker,2013-01-08 17:15:00,
2013-01-08 09:20:00,38.8,37.4,29.91,South,180,5.0,5.0,97,0.00,,,0.04,WeatherTracker,2013-01-08 17:20:00,
2013-01-08 09:30:00,38.8,37.4,29.91,South,180,4.0,5.0,96,0.00,,,0.04,WeatherTracker,2013-01-08 17:30:00,
2013-01-08 09:40:00,38.8,37.4,29.91,SSE,157,3.0,3.0,96,0.00,,,0.04,WeatherTracker,2013-01-08 17:40:00,
2013-01-08 09:45:00,38.8,37.4,29.91,South,180,3.0,3.0,96,0.00,,,0.04,WeatherTracker,2013-01-08 17:45:00,
2013-01-08 09:55:00,39.0,39.2,29.91,SSE,157,4.0,5.0,97,0.04,,,0.08,WeatherTracker,2013-01-08 17:55:00,
2013-01-08 10:05:00,38.8,37.4,29.91,SW,225,3.0,4.0,97,0.04,,,0.08,WeatherTracker,2013-01-08 18:05:00,
2013-01-08 10:15:00,39.0,39.2,29.91,South,180,3.0,6.0,97,0.04,,,0.08,WeatherTracker,2013-01-08 18:15:00,
2013-01-08 10:20:00,39.0,39.2,29.91,SSE,157,3.0,3.0,96,0.04,,,0.08,WeatherTracker,2013-01-08 18:20:00,
2013-01-08 10:30:00,38.8,37.4,29.88,SSE,157,4.0,4.0,96,0.04,,,0.08,WeatherTracker,2013-01-08 18:30:00,
2013-01-08 10:40:00,38.8,37.4,29.88,SE,135,4.0,4.0,93,0.08,,,0.12,WeatherTracker,2013-01-08 18:40:00,
2013-01-08 10:50:00,38.7,37.4,29.85,South,180,3.0,4.0,93,0.04,,,0.12,WeatherTracker,2013-01-08 18:50:00,
2013-01-08 10:55:00,38.7,37.4,29.85,ESE,112,4.0,4.0,92,0.04,,,0.12,WeatherTracker,2013-01-08 18:55:00,
2013-01-08 11:00:00,38.7,37.4,29.88,East,90,5.0,5.0,92,0.04,,,0.12,WeatherTracker,2013-01-08 19:00:00,
2013-01-08 11:05:00,38.7,37.4,29.88,SE,135,4.0,4.0,92,0.04,,,0.12,WeatherTracker,2013-01-08 19:05:00,
2013-01-08 11:10:00,38.5,37.4,29.88,South,180,9.0,9.0,91,0.04,,,0.12,WeatherTracker,2013-01-08 19:10:00,
2013-01-08 11:15:00,38.5,37.4,29.85,SW,225,7.0,7.0,91,0.04,,,0.12,WeatherTracker,2013-01-08 19:15:00,
2013-01-08 11:20:00,38.5,37.4,29.85,East,90,6.0,6.0,92,0.04,,,0.12,WeatherTracker,2013-01-08 19:20:00,
2013-01-08 11:25:00,38.5,37.4,29.85,South,180,4.0,5.0,93,0.04,,,0.12,WeatherTracker,2013-01-08 19:25:00,
2013-01-08 11:30:00,38.5,37.4,29.83,SSE,157,6.0,6.0,93,0.08,,,0.16,WeatherTracker,2013-01-08 19:30:00,
2013-01-08 11:35:00,38.5,37.4,29.83,South,180,5.0,10.0,93,0.08,,,0.16,WeatherTracker,2013-01-08 19:35:00,
2013-01-08 11:40:00,38.5,37.4,29.83,SSE,157,3.0,3.0,93,0.04,,,0.16,WeatherTracker,2013-01-08 19:40:00,
2013-01-08 11:45:00,38.5,37.4,29.83,ESE,112,5.0,6.0,93,0.04,,,0.16,WeatherTracker,2013-01-08 19:45:00,
2013-01-08 11:50:00,38.5,37.4,29.83,South,180,4.0,4.0,93,0.04,,,0.16,WeatherTracker,2013-01-08 19:50:00,
2013-01-08 11:55:00,38.5,37.4,29.83,SSE,157,3.0,3.0,94,0.04,,,0.16,WeatherTracker,2013-01-08 19:55:00,
2013-01-08 12:00:00,38.5,37.4,29.83,SE,135,4.0,6.0,94,0.04,,,0.16,WeatherTracker,2013-01-08 20:00:00,
2013-01-08 12:05:00,38.5,37.4,29.83,South,180,3.0,3.0,95,0.04,,,0.16,WeatherTracker,2013-01-08 20:05:00,
2013-01-08 12:10:00,38.3,37.4,29.83,SSE,157,3.0,3.0,94,0.04,,,0.16,WeatherTracker,2013-01-08 20:10:00,
2013-01-08 12:15:00,38.1,37.4,29.83,SSE,157,8.0,8.0,93,0.09,,,0.21,WeatherTracker,2013-01-08 20:15:00,
2013-01-08 12:20:00,37.9,37.4,29.83,South,180,4.0,4.0,93,0.09,,,0.21,WeatherTracker,2013-01-08 20:20:00,
2013-01-08 12:25:00,37.9,37.4,29.83,SSE,157,4.0,6.0,94,0.09,,,0.21,WeatherTracker,2013-01-08 20:25:00,
2013-01-08 12:30:00,37.9,37.4,29.80,SW,225,4.0,4.0,94,0.05,,,0.21,WeatherTracker,2013-01-08 20:30:00,
2013-01-08 12:35:00,37.8,37.4,29.80,South,180,4.0,4.0,94,0.09,,,0.25,WeatherTracker,2013-01-08 20:35:00,
2013-01-08 12:40:00,37.8,37.4,29.80,SSW,202,2.0,2.0,94,0.09,,,0.25,WeatherTracker,2013-01-08 20:40:00,
2013-01-08 12:45:00,37.6,35.6,29.80,SE,135,3.0,3.0,94,0.09,,,0.25,WeatherTracker,2013-01-08 20:45:00,
2013-01-08 12:50:00,37.4,35.6,29.80,SSE,157,1.0,4.0,94,0.09,,,0.25,WeatherTracker,2013-01-08 20:50:00,
2013-01-08 12:55:00,37.4,35.6,29.80,SE,135,3.0,4.0,94,0.13,,,0.29,WeatherTracker,2013-01-08 20:55:00,
2013-01-08 13:00:00,37.2,37.4,29.80,East,90,4.0,4.0,95,0.13,,,0.29,WeatherTracker,2013-01-08 21:00:00,
2013-01-08 13:05:00,37.0,37.4,29.80,South,180,2.0,2.0,95,0.13,,,0.29,WeatherTracker,2013-01-08 21:05:00,
2013-01-08 13:15:00,36.7,35.6,29.77,SSE,157,7.0,11.0,94,0.12,,,0.33,WeatherTracker,2013-01-08 21:15:00,
2013-01-08 13:25:00,36.1,35.6,29.77,SE,135,5.0,7.0,94,0.16,,,0.37,WeatherTracker,2013-01-08 21:25:00,
2013-01-08 13:35:00,35.8,33.8,29.77,South,180,6.0,6.0,94,0.12,,,0.37,WeatherTracker,2013-01-08 21:35:00,
2013-01-08 13:40:00,35.8,35.6,29.77,SE,135,5.0,5.0,95,0.12,,,0.37,WeatherTracker,2013-01-08 21:40:00,
2013-01-08 13:50:00,36.0,35.6,29.74,SSE,157,3.0,3.0,96,0.17,,,0.42,WeatherTracker,2013-01-08 21:50:00,
2013-01-08 14:00:00,36.1,35.6,29.74,East,90,4.0,5.0,96,0.13,,,0.42,WeatherTracker,2013-01-08 22:00:00,
2013-01-08 14:10:00,36.1,35.6,29.74,South,180,4.0,4.0,96,0.13,,,0.42,WeatherTracker,2013-01-08 22:10:00,
2013-01-08 14:15:00,36.3,35.6,29.74,SSW,202,6.0,6.0,96,0.12,,,0.45,WeatherTracker,2013-01-08 22:15:00,
2013-01-08 14:25:00,36.1,35.6,29.74,South,180,6.0,9.0,97,0.08,,,0.45,WeatherTracker,2013-01-08 22:25:00,
2013-01-08 14:35:00,36.1,35.6,29.74,SSW,202,6.0,10.0,97,0.13,,,0.50,WeatherTracker,2013-01-08 22:35:00,
2013-01-08 14:45:00,36.1,35.6,29.68,SSE,157,7.0,7.0,97,0.13,,,0.50,WeatherTracker,2013-01-08 22:45:00,
2013-01-08 14:50:00,35.8,35.6,29.68,South,180,6.0,10.0,97,0.12,,,0.54,WeatherTracker,2013-01-08 22:50:00,
2013-01-08 15:00:00,35.8,35.6,29.71,SE,135,8.0,15.0,97,0.12,,,0.54,WeatherTracker,2013-01-08 23:00:00,
2013-01-08 15:05:00,35.8,35.6,29.71,SSW,202,6.0,10.0,97,0.12,,,0.54,WeatherTracker,2013-01-08 23:05:00,
2013-01-08 15:10:00,35.8,35.6,29.71,SSE,157,7.0,9.0,97,0.16,,,0.58,WeatherTracker,2013-01-08 23:10:00,
2013-01-08 15:20:00,35.6,35.6,29.71,SE,135,3.0,3.0,97,0.13,,,0.58,WeatherTracker,2013-01-08 23:20:00,
2013-01-08 15:30:00,35.4,35.6,29.68,South,180,4.0,4.0,97,0.13,,,0.58,WeatherTracker,2013-01-08 23:30:00,
2013-01-08 15:35:00,35.6,35.6,29.68,SSE,157,7.0,7.0,97,0.12,,,0.62,WeatherTracker,2013-01-08 23:35:00,
2013-01-08 15:45:00,35.4,35.6,29.68,SE,135,5.0,5.0,98,0.12,,,0.62,WeatherTracker,2013-01-08 23:45:00,
2013-01-08 15:55:00,35.4,35.6,29.68,South,180,6.0,8.0,98,0.12,,,0.66,WeatherTracker,2013-01-08 23:55:00,
2013-01-08 16:00:00,35.6,35.6,29.68,SSE,157,5.0,10.0,98,0.12,,,0.66,WeatherTracker,2013-01-09 00:00:00,
2013-01-08 16:10:00,35.6,35.6,29.68,South,180,7.0,9.0,98,0.12,,,0.70,WeatherTracker,2013-01-09 00:10:00,
2013-01-08 16:20:00,36.1,37.4,29.68,SE,135,4.0,9.0,98,0.17,,,0.75,WeatherTracker,2013-01-09 00:20:00,
2013-01-08 16:30:00,36.1,37.4,29.68,SW,225,9.0,9.0,98,0.17,,,0.75,WeatherTracker,2013-01-09 00:30:00,
2013-01-08 16:35:00,36.1,37.4,29.68,SE,135,7.0,14.0,98,0.13,,,0.75,WeatherTracker,2013-01-09 00:35:00,
2013-01-08 16:45:00,36.1,37.4,29.68,SSE,157,9.0,16.0,98,0.17,,,0.79,WeatherTracker,2013-01-09 00:45:00,
2013-01-08 16:50:00,36.1,37.4,29.68,East,90,9.0,9.0,98,0.17,,,0.79,WeatherTracker,2013-01-09 00:50:00,
2013-01-08 16:55:00,36.3,37.4,29.68,SSE,157,8.0,8.0,98,0.13,,,0.79,WeatherTracker,2013-01-09 00:55:00,
2013-01-08 17:05:00,36.3,37.4,29.68,SSE,157,9.0,11.0,98,0.09,,,0.79,WeatherTracker,2013-01-09 01:05:00,
2013-01-08 17:15:00,36.5,37.4,29.68,South,180,8.0,9.0,98,0.13,,,0.83,WeatherTracker,2013-01-09 01:15:00,
2013-01-08 17:20:00,36.5,37.4,29.68,SSE,157,11.0,11.0,98,0.08,,,0.83,WeatherTracker,2013-01-09 01:20:00,
2013-01-08 17:30:00,36.5,37.4,29.62,SE,135,9.0,9.0,98,0.08,,,0.83,WeatherTracker,2013-01-09 01:30:00,
2013-01-08 17:35:00,36.5,37.4,29.62,SE,135,7.0,7.0,98,0.12,,,0.87,WeatherTracker,2013-01-09 01:35:00,
2013-01-08 17:40:00,36.7,37.4,29.62,SE,135,6.0,9.0,98,0.12,,,0.87,WeatherTracker,2013-01-09 01:40:00,
2013-01-08 17:50:00,36.7,37.4,29.62,South,180,8.0,8.0,98,0.08,,,0.87,WeatherTracker,2013-01-09 01:50:00,
2013-01-08 17:55:00,36.9,37.4,29.62,South,180,9.0,11.0,98,0.08,,,0.87,WeatherTracker,2013-01-09 01:55:00,
2013-01-08 18:05:00,36.9,37.4,29.62,SE,135,5.0,5.0,98,0.08,,,0.87,WeatherTracker,2013-01-09 02:05:00,
2013-01-08 18:15:00,37.0,37.4,29.59,SE,135,5.0,8.0,98,0.08,,,0.91,WeatherTracker,2013-01-09 02:15:00,
2013-01-08 18:20:00,37.0,37.4,29.59,SSE,157,4.0,6.0,98,0.08,,,0.91,WeatherTracker,2013-01-09 02:20:00,
2013-01-08 18:30:00,37.2,37.4,29.59,SE,135,3.0,7.0,98,0.08,,,0.91,WeatherTracker,2013-01-09 02:30:00,
2013-01-08 18:40:00,37.2,37.4,29.59,SE,135,5.0,7.0,98,0.04,,,0.91,WeatherTracker,2013-01-09 02:40:00,
2013-01-08 18:50:00,37.4,37.4,29.59,SE,135,4.0,6.0,98,0.08,,,0.95,WeatherTracker,2013-01-09 02:50:00,
2013-01-08 19:00:00,37.6,37.4,29.59,South,180,5.0,7.0,98,0.08,,,0.95,WeatherTracker,2013-01-09 03:00:00,
2013-01-08 19:05:00,37.6,37.4,29.59,SE,135,5.0,10.0,98,0.08,,,0.95,WeatherTracker,2013-01-09 03:05:00,
2013-01-08 19:15:00,37.8,37.4,29.59,SE,135,4.0,6.0,98,0.08,,,0.99,WeatherTracker,2013-01-09 03:15:00,
2013-01-08 19:25:00,37.9,37.4,29.59,ESE,112,7.0,7.0,98,0.08,,,0.99,WeatherTracker,2013-01-09 03:25:00,
2013-01-08 19:30:00,37.9,37.4,29.56,SW,225,3.0,3.0,98,0.12,,,1.03,WeatherTracker,2013-01-09 03:30:00,
2013-01-08 19:40:00,38.1,37.4,29.56,ENE,67,1.0,0.0,98,0.12,,,1.03,WeatherTracker,2013-01-09 03:40:00,
2013-01-08 19:45:00,38.1,37.4,29.59,SSW,202,0.0,1.0,98,0.08,,,1.03,WeatherTracker,2013-01-09 03:45:00,
2013-01-08 19:50:00,38.3,39.2,29.59,SE,135,2.0,2.0,98,0.13,,,1.08,WeatherTracker,2013-01-09 03:50:00,
2013-01-08 20:00:00,38.5,39.2,29.59,ENE,67,4.0,4.0,98,0.13,,,1.08,WeatherTracker,2013-01-09 04:00:00,
2013-01-08 20:05:00,38.7,39.2,29.59,SSE,157,1.0,4.0,98,0.13,,,1.08,WeatherTracker,2013-01-09 04:05:00,
2013-01-08 20:15:00,38.7,39.2,29.56,ESE,112,0.0,0.0,98,0.13,,,1.12,WeatherTracker,2013-01-09 04:15:00,
2013-01-08 20:25:00,38.7,39.2,29.56,East,90,0.0,0.0,98,0.13,,,1.12,WeatherTracker,2013-01-09 04:25:00,
2013-01-08 20:35:00,38.7,39.2,29.56,ESE,112,1.0,0.0,98,0.09,,,1.12,WeatherTracker,2013-01-09 04:35:00,
2013-01-08 20:45:00,38.8,39.2,29.56,ESE,112,0.0,0.0,98,0.13,,,1.16,WeatherTracker,2013-01-09 04:45:00,
2013-01-08 20:50:00,39.0,39.2,29.56,ESE,112,0.0,0.0,98,0.08,,,1.16,WeatherTracker,2013-01-09 04:50:00,
2013-01-08 21:00:00,39.0,39.2,29.56,East,90,0.0,0.0,98,0.08,,,1.16,WeatherTracker,2013-01-09 05:00:00,
2013-01-08 21:10:00,39.2,39.2,29.56,ESE,112,2.0,2.0,98,0.08,,,1.16,WeatherTracker,2013-01-09 05:10:00,
2013-01-08 21:15:00,39.4,39.2,29.56,East,90,0.0,0.0,98,0.04,,,1.16,WeatherTracker,2013-01-09 05:15:00,
2013-01-08 21:25:00,39.4,39.2,29.56,NE,45,1.0,2.0,98,0.04,,,1.16,WeatherTracker,2013-01-09 05:25:00,
2013-01-08 21:35:00,39.7,39.2,29.53,ENE,67,2.0,2.0,98,0.04,,,1.16,WeatherTracker,2013-01-09 05:35:00,
2013-01-08 21:45:00,40.6,41.0,29.56,South,180,2.0,2.0,98,0.04,,,1.20,WeatherTracker,2013-01-09 05:45:00,
2013-01-08 21:50:00,41.0,41.0,29.56,South,180,2.0,2.0,98,0.04,,,1.20,WeatherTracker,2013-01-09 05:50:00,
2013-01-08 22:00:00,41.0,41.0,29.56,SE,135,2.0,2.0,98,0.04,,,1.20,WeatherTracker,2013-01-09 06:00:00,
2013-01-08 22:10:00,42.6,42.8,29.56,East,90,1.0,0.0,98,0.04,,,1.20,WeatherTracker,2013-01-09 06:10:00,
2013-01-08 22:15:00,43.3,42.8,29.56,NNE,22,1.0,1.0,98,0.04,,,1.20,WeatherTracker,2013-01-09 06:15:00,
2013-01-08 22:20:00,44.2,44.6,29.56,NNE,22,1.0,1.0,98,0.04,,,1.20,WeatherTracker,2013-01-09 06:20:00,
2013-01-08 22:30:00,44.8,44.6,29.56,North,0,0.0,2.0,98,0.04,,,1.20,WeatherTracker,2013-01-09 06:30:00,
2013-01-08 22:35:00,45.0,44.6,29.56,North,0,1.0,1.0,98,0.04,,,1.20,WeatherTracker,2013-01-09 06:35:00,
2013-01-08 22:45:00,45.1,44.6,29.59,North,0,1.0,1.0,98,0.00,,,1.20,WeatherTracker,2013-01-09 06:45:00,
2013-01-08 22:55:00,45.3,44.6,29.59,North,0,0.0,0.0,98,0.00,,,1.20,WeatherTracker,2013-01-09 06:55:00,
2013-01-08 23:00:00,45.5,46.4,29.59,NNE,22,2.0,2.0,98,0.00,,,1.20,WeatherTracker,2013-01-09 07:00:00,
2013-01-08 23:10:00,45.5,46.4,29.59,North,0,1.0,0.0,98,0.00,,,1.20,WeatherTracker,2013-01-09 07:10:00,
2013-01-08 23:20:00,45.5,46.4,29.56,North,0,0.0,0.0,98,0.00,,,1.20,WeatherTracker,2013-01-09 07:20:00,
2013-01-08 23:30:00,45.3,44.6,29.56,North,0,0.0,0.0,98,0.00,,,1.20,WeatherTracker,2013-01-09 07:30:00,
2013-01-08 23:35:00,45.1,44.6,29.56,North,0,0.0,0.0,98,0.00,,,1.20,WeatherTracker,2013-01-09 07:35:00,
2013-01-08 23:45:00,45.3,44.6,29.56,North,0,0.0,1.0,98,0.00,,,1.20,WeatherTracker,2013-01-09 07:45:00,
2013-01-08 23:55:00,45.1,44.6,29.56,North,0,0.0,0.0,98,0.00,,,1.20,WeatherTracker,2013-01-09 07:55:00,